[[{"header":{"parameterUnit":"m.s-1","parameterCategory":2,"la1":30.2991,"la2":30.254,"lo1":-89.0895,"lo2":-89.0444,"dy":0.0017,"dx":0.0017,"nx":28,"ny":28,"refTime":"2025-09-14T21:00:00:Z","depth":"0","parameterNumber":2,"parameterNumberName":"U-component_of_CURRENTS"},"data":[0,0,0,0,0,0,0,0,0,0,0,0,0,0,0,0,0,0,0,0,0,0,0,0,0,0,0,0,0,0,0,0,0,0,0,0,0,0,0,0,0,0,0,0,0,0,0,0,0,0,0,0,0,0,0,0,0,0,0.3823,0.3824,0,0.3899,0.3899,0.39,0.3963,0.3963,0.3964,0.3964,0.395,0.3949,0.3948,0,0,0,0,0,0,0,0,0,0,0,0,0,0.3784,0.3784,0.3823,0.3824,0.3825,0.3898,0.39,0.3901,0.3962,0.3963,0.3964,0.3965,0.395,0.3949,0.3948,0,0,0,0,0,0,0,0,0,0,0,0,0,0.3824,0.3784,0.3823,0.3864,0.3869,0.3898,0.39,0.3901,0.3962,0.3963,0.3964,0.3965,0.3951,0.3949,0.3948,0.392,0,0,0.3943,0.3943,0,0,0,0,0,0,0,0,0.3822,0.3826,0.3857,0.3861,0.3866,0.3922,0.3881,0.3903,0.3962,0.3927,0.3964,0.3965,0.3931,0.3931,0.3945,0.392,0.3919,0.3943,0.3942,0.3942,0.3941,0,0,0,0,0,0,0,0.3819,0.3823,0.3853,0.3858,0.3864,0.3897,0.3903,0.3886,0.3921,0.393,0.3935,0.3942,0.3933,0.3947,0.3945,0.3919,0.3943,0.3942,0.3941,0.394,0.3921,0.3921,0,0,0,0,0,0,0.3805,0.382,0.3851,0.3855,0.3846,0.3896,0.3904,0.3903,0.3924,0.3929,0.3941,0.3945,0.3949,0.3947,0.3945,0.3982,0.3942,0.394,0.394,0.3921,0.3921,0.3922,0,0,0,0,0,0,0.3804,0.3807,0.3848,0.384,0.3847,0.3896,0.3895,0.3904,0.3924,0.3933,0.3937,0.3953,0.3949,0.3947,0.3945,0.3979,0.394,0.3938,0.392,0.3921,0.3921,0.4011,0,0,0,0,0,0,0.3802,0.3806,0.3806,0.3838,0.3847,0.3876,0.3895,0.3905,0.3927,0.3932,0.3943,0.3943,0.395,0.3947,0.3944,0.3976,0.3937,0.392,0.3921,0.3921,0.4008,0.4015,0.4021,0,0,0,0,0,0.38,0.3801,0.3805,0.3809,0.3844,0.3877,0.3885,0.3923,0.3926,0.3942,0.3949,0.3943,0.3949,0.3946,0.3942,0.3975,0.392,0.392,0.3921,0.4005,0.4013,0.402,0,0,0,0,0,0,0.3786,0.3808,0.3813,0.382,0.3849,0.3888,0.3903,0.3919,0.3937,0.3939,0.3942,0.3942,0.396,0.3939,0.3935,0.3968,0.3935,0.3935,0.4,0.4007,0.4014,0.4019,0.3936,0,0,0,0,0,0.3778,0.3784,0.3812,0.3818,0.3829,0.386,0.3878,0.3902,0.3921,0.3932,0.3939,0.3941,0.3958,0.3959,0.3963,0.3965,0.3991,0.3983,0.3989,0.3995,0.3994,0.4059,0.4073,0.3924,0.3924,0.3924,0,0,0.3773,0.3786,0.3789,0.3815,0.3837,0.3864,0.3874,0.3902,0.3931,0.3922,0.3951,0.3961,0.3962,0.399,0.3995,0.3978,0.4058,0.3996,0.4002,0.3997,0.4061,0.4076,0.409,0.3925,0.3925,0.3924,0,0,0.3775,0.3776,0.3787,0.3809,0.3842,0.3866,0.3871,0.3908,0.3931,0.3953,0.3969,0.3995,0.3994,0.4027,0.4037,0.4067,0.4092,0.4064,0.4103,0.4167,0.4181,0.4193,0.4288,0.4308,0.4066,0.4067,0.4067,0,0.377,0.3782,0.3797,0.3819,0.3838,0.3865,0.3888,0.3918,0.3952,0.398,0.3968,0.402,0.402,0.408,0.4101,0.4087,0.4134,0.4082,0.418,0.4192,0.4203,0.4297,0.4318,0.4071,0.407,0.407,0.407,0,0.3785,0.3797,0.3805,0.3839,0.3865,0.3885,0.3926,0.3958,0.3978,0.4017,0.4071,0.4082,0.4118,0.4129,0.4125,0.4206,0.4223,0.4189,0.4171,0.4224,0.432,0.434,0.4077,0.4076,0.4074,0.4073,0,0,0.376,0.3806,0.3807,0.3826,0.3873,0.3896,0.3947,0.4009,0.4069,0.4091,0.4177,0.4191,0.4208,0.4218,0.4226,0.4275,0.441,0.4267,0.4268,0.4381,0.4591,0.4465,0.4475,0.4402,0.4405,0.4408,0.4644,0,0.3765,0.3801,0.3826,0.3865,0.3886,0.3929,0.3984,0.4049,0.411,0.4207,0.4235,0.431,0.424,0.4284,0.4318,0.44,0.446,0.4351,0.4503,0.4509,0.4405,0.4491,0.4224,0.4397,0.4663,0.4667,0.4669,0,0.3765,0.3793,0.3826,0.3886,0.3901,0.3931,0.4032,0.4092,0.4231,0.4289,0.4358,0.4405,0.4494,0.4426,0.4557,0.4497,0.4542,0.4586,0.4596,0.4452,0.4417,0.4374,0.4424,0.43,0.47,0.4697,0.4695,0,0.3736,0.3785,0.3809,0.3827,0.3909,0.3935,0.3987,0.4112,0.4191,0.436,0.4452,0.454,0.4623,0.467,0.471,0.467,0.4868,0.4827,0.4757,0.4752,0.4535,0.4503,0.4486,0.4917,0.4916,0.4915,0.4915,0,0.3724,0.3744,0.3794,0.3809,0.3868,0.3923,0.4017,0.4104,0.4255,0.438,0.4483,0.4599,0.4686,0.479,0.48,0.4837,0.4932,0.4788,0.48,0.456,0.4528,0.4414,0.4368,0.4924,0.4922,0.4921,0.4919,0,0.3705,0.3726,0.3771,0.3838,0.3855,0.3906,0.4018,0.4109,0.4246,0.4424,0.4485,0.4695,0.4826,0.4881,0.5019,0.4955,0.4853,0.4984,0.4706,0.4676,0.4448,0.4416,0.4296,0.4179,0.4978,0.4977,0.4975,0,0.3701,0.372,0.3788,0.3829,0.3857,0.3926,0.3989,0.41,0.42,0.4464,0.4557,0.4755,0.4854,0.5002,0.4926,0.4935,0.4806,0.4719,0.4554,0.4412,0.439,0.4252,0.4153,0.4349,0.4343,0.4337,0.4333,0,0.373,0.3754,0.3813,0.3871,0.3918,0.3969,0.4051,0.4108,0.4269,0.4385,0.4576,0.468,0.4806,0.4696,0.4688,0.4653,0.4452,0.4608,0.4528,0.3943,0.3726,0.3625,0.4263,0.4285,0.429,0.4294,0.4296,0.4298,0.3769,0.3817,0.3882,0.3928,0.3977,0.3989,0.397,0.4064,0.4143,0.4233,0.445,0.4464,0.446,0.439,0.4344,0.4068,0.4127,0.3915,0.392,0.3821,0.3567,0.4106,0.4076,0.4079,0.4082,0.4085,0.4087,0,0.3793,0.3844,0.3926,0.3941,0.3935,0.3955,0.399,0.392,0.3912,0.4023,0.4084,0.3975,0.3847,0.3802,0.3563,0.3397,0.3255,0.3312,0.3059,0.3023,0.3562,0.3387,0.3119,0.3119,0.3119,0.312,0.312,0.312,0.3811,0.3871,0.3894,0.3864,0.385,0.3719,0.3676,0.3608,0.3606,0.3477,0.3353,0.3362,0.3376,0.3246,0.3002,0.2921,0.2728,0.2553,0.2656,0.3026,0.3082,0.3135,0.2958,0.2605,0.2605,0.193,0.1925,0.1921]},{"header":{"parameterUnit":"m.s-1","parameterCategory":2,"la1":30.2991,"la2":30.254,"lo1":-89.0895,"lo2":-89.0444,"dy":0.0017,"dx":0.0017,"nx":28,"ny":28,"refTime":"2025-09-14T21:00:00:Z","depth":"0","parameterNumber":3,"parameterNumberName":"V-component_of_CURRENTS"},"data":[0,0,0,0,0,0,0,0,0,0,0,0,0,0,0,0,0,0,0,0,0,0,0,0,0,0,0,0,0,0,0,0,0,0,0,0,0,0,0,0,0,0,0,0,0,0,0,0,0,0,0,0,0,0,0,0,0,0,0.0243,0.0242,0,0.0204,0.0203,0.0203,0.016,0.016,0.0159,0.0159,0.0084,0.0083,0.0081,0,0,0,0,0,0,0,0,0,0,0,0,0,0.0244,0.0244,0.0243,0.0242,0.0242,0.0204,0.0203,0.0202,0.016,0.016,0.0159,0.0158,0.0085,0.0083,0.0081,0,0,0,0,0,0,0,0,0,0,0,0,0,0.0227,0.0244,0.0243,0.0217,0.0214,0.0204,0.0203,0.0202,0.016,0.016,0.0159,0.0158,0.0085,0.0083,0.0081,0.0083,0,0,0.0074,0.0073,0,0,0,0,0,0,0,0,0.0228,0.0227,0.0221,0.0219,0.0216,0.0187,0.0176,0.0161,0.0161,0.018,0.0159,0.0158,0.0116,0.0112,0.0105,0.008,0.0076,0.0074,0.0073,0.0072,0.0071,0,0,0,0,0,0,0,0.0229,0.0228,0.0226,0.0221,0.0218,0.0195,0.0192,0.0173,0.0152,0.0178,0.0175,0.0173,0.0114,0.0108,0.0103,0.0075,0.0074,0.0072,0.0071,0.007,0.0039,0.0039,0,0,0,0,0,0,0.0239,0.023,0.0228,0.0225,0.0221,0.0195,0.0192,0.0196,0.0153,0.0146,0.0173,0.0171,0.0112,0.0106,0.01,0.0111,0.0072,0.007,0.0068,0.0038,0.0039,0.004,0,0,0,0,0,0,0.0239,0.024,0.0229,0.0227,0.0224,0.0197,0.0201,0.0196,0.0189,0.0149,0.0142,0.0172,0.0111,0.0104,0.0087,0.0108,0.0069,0.0067,0.0038,0.0039,0.0039,0.0126,0,0,0,0,0,0,0.024,0.024,0.0246,0.0228,0.0224,0.023,0.0202,0.0196,0.0189,0.0185,0.0146,0.0138,0.011,0.0091,0.0085,0.0104,0.0065,0.0037,0.0038,0.0039,0.0123,0.013,0.0136,0,0,0,0,0,0.024,0.0257,0.0247,0.0246,0.0234,0.023,0.0227,0.0203,0.019,0.0193,0.0165,0.0139,0.0092,0.0089,0.0082,0.0101,0.0037,0.0038,0.0039,0.012,0.0128,0.0136,0,0,0,0,0,0,0.0259,0.0254,0.0242,0.0255,0.0245,0.0224,0.0225,0.021,0.0191,0.0186,0.0147,0.0137,0.0127,0.0102,0.01,0.0093,0.006,0.006,0.0124,0.0132,0.0138,0.0168,0.0063,0,0,0,0,0,0.0267,0.0277,0.0264,0.0273,0.0271,0.0249,0.0244,0.023,0.0212,0.0202,0.0176,0.0148,0.0128,0.012,0.0093,0.0096,0.0097,0.0102,0.0109,0.0115,0.0133,0.0156,0.0168,0.0043,0.0043,0.0043,0,0,0.0276,0.0274,0.0279,0.0278,0.0267,0.0283,0.0244,0.0243,0.0257,0.0198,0.0204,0.0166,0.013,0.0128,0.0123,0.0112,0.015,0.0116,0.0122,0.0138,0.0159,0.0171,0.0183,0.0044,0.0044,0.0044,0,0,0.0308,0.0299,0.0321,0.0321,0.0314,0.0305,0.0309,0.0292,0.0283,0.0281,0.0242,0.0225,0.0191,0.018,0.0167,0.0197,0.0179,0.0178,0.0246,0.0269,0.028,0.029,0.0313,0.0324,0.019,0.019,0.019,0,0.0318,0.0348,0.0326,0.035,0.036,0.0322,0.0354,0.0344,0.0323,0.0332,0.0293,0.0266,0.0223,0.0245,0.0243,0.0216,0.0223,0.0222,0.0281,0.029,0.0299,0.032,0.0331,0.0194,0.0194,0.0193,0.0193,0,0.0372,0.0394,0.0407,0.043,0.0436,0.0454,0.0443,0.0442,0.0423,0.042,0.0422,0.0367,0.0356,0.0335,0.0292,0.0333,0.0316,0.0283,0.0268,0.0318,0.0336,0.0346,0.0201,0.0199,0.0198,0.0197,0,0,0.0402,0.0441,0.0445,0.0472,0.0482,0.0495,0.0519,0.0541,0.0576,0.0539,0.0588,0.0529,0.0498,0.0481,0.043,0.0441,0.049,0.039,0.0389,0.0427,0.0547,0.05,0.0507,0.0468,0.0471,0.0472,0.0538,0,0.0451,0.0521,0.0525,0.0587,0.0622,0.0605,0.064,0.0652,0.0651,0.0686,0.0642,0.0661,0.0556,0.0556,0.0546,0.0508,0.052,0.0476,0.0481,0.0481,0.0446,0.0518,0.0485,0.0537,0.0548,0.0549,0.0551,0,0.0506,0.0548,0.0622,0.0679,0.0693,0.0722,0.0775,0.0806,0.0839,0.0841,0.0844,0.0813,0.0816,0.072,0.0696,0.0672,0.0615,0.0582,0.0583,0.052,0.0454,0.0486,0.0555,0.0406,0.0566,0.0565,0.0564,0,0.0546,0.0614,0.0678,0.0696,0.0754,0.0781,0.0814,0.0855,0.0909,0.0956,0.1009,0.0981,0.1006,0.0924,0.0818,0.077,0.0804,0.073,0.0642,0.0638,0.0601,0.059,0.054,0.0728,0.0727,0.0727,0.0727,0,0.0602,0.065,0.07,0.0735,0.0817,0.0838,0.0932,0.0956,0.1034,0.1144,0.1096,0.1185,0.1061,0.1049,0.0907,0.0819,0.0873,0.0681,0.0662,0.0628,0.0619,0.0478,0.0379,0.073,0.0729,0.0729,0.0728,0,0.0637,0.067,0.0743,0.0811,0.0837,0.0897,0.1004,0.1083,0.1146,0.1291,0.1323,0.1373,0.1373,0.123,0.1144,0.0971,0.0775,0.0815,0.0782,0.0756,0.0495,0.0402,0.0346,0.0283,0.0734,0.0734,0.0733,0,0.0665,0.0708,0.0791,0.0844,0.0875,0.0968,0.1045,0.1125,0.1229,0.1422,0.1512,0.1574,0.1645,0.149,0.1211,0.0989,0.0815,0.0781,0.0665,0.0504,0.0386,0.0326,0.0273,0.0658,0.0657,0.0656,0.0655,0,0.072,0.0741,0.0799,0.0904,0.0985,0.1095,0.1216,0.1314,0.1456,0.1611,0.1833,0.1921,0.1791,0.1581,0.1246,0.1059,0.0654,0.0754,0.0608,0.0347,0.0262,0.0185,0.0589,0.0647,0.0648,0.0648,0.0649,0.0649,0.0752,0.0801,0.0876,0.0976,0.108,0.1226,0.1335,0.1499,0.1707,0.1972,0.2052,0.2227,0.1871,0.1433,0.116,0.0606,0.0625,0.0415,0.0329,0.0294,0.0189,0.0572,0.0583,0.0583,0.0583,0.0584,0.0584,0,0.0802,0.0863,0.0953,0.1084,0.1211,0.1255,0.146,0.1602,0.1872,0.2127,0.2339,0.2246,0.1811,0.1327,0.0577,0.0228,0.011,0.0047,-0.0049,-0.0075,0.0292,0.024,0.0152,0.0152,0.0152,0.0152,0.0153,0.0153,0.0833,0.0925,0.0973,0.1177,0.1279,0.1464,0.1589,0.1812,0.2021,0.2319,0.2428,0.2484,0.2062,0.083,0.0029,-0.0145,-0.0367,-0.0426,-0.0502,-0.0282,-0.0254,-0.0228,-0.0299,-0.0498,-0.0499,-0.0831,-0.0834,-0.0837]}],[{"header":{"parameterUnit":"m.s-1","parameterCategory":2,"la1":30.2991,"la2":30.254,"lo1":-89.0895,"lo2":-89.0444,"dy":0.0017,"dx":0.0017,"nx":28,"ny":28,"refTime":"2025-09-14T21:00:00:Z","depth":"2","parameterNumber":2,"parameterNumberName":"U-component_of_CURRENTS"},"data":[0,0,0,0,0,0,0,0,0,0,0,0,0,0,0,0,0,0,0,0,0,0,0,0,0,0,0,0,0,0,0,0,0,0,0,0,0,0,0,0,0,0,0,0,0,0,0,0,0,0,0,0,0,0,0,0,0,0,0.2736,0.2737,0,0.2776,0.2776,0.2776,0.2751,0.2751,0.275,0.2749,0.2787,0.2788,0.279,0,0,0,0,0,0,0,0,0,0,0,0,0,0.2694,0.2694,0.2736,0.2737,0.2738,0.2776,0.2776,0.2776,0.2751,0.2751,0.275,0.2749,0.2786,0.2788,0.279,0,0,0,0,0,0,0,0,0,0,0,0,0,0.2715,0.2694,0.2735,0.2734,0.2735,0.2776,0.2776,0.2776,0.2752,0.2751,0.275,0.2749,0.2786,0.2788,0.279,0.2824,0,0,0.2798,0.2799,0,0,0,0,0,0,0,0,0.2714,0.2716,0.2734,0.2735,0.2736,0.2763,0.2776,0.2794,0.2752,0.2739,0.2749,0.2748,0.2783,0.2786,0.2787,0.2825,0.2827,0.2798,0.2799,0.28,0.2801,0,0,0,0,0,0,0,0.2713,0.2715,0.2745,0.2735,0.2736,0.2752,0.2753,0.2779,0.2761,0.274,0.274,0.2754,0.2783,0.2785,0.2788,0.2828,0.2798,0.28,0.2801,0.2802,0.2905,0.2906,0,0,0,0,0,0,0.2718,0.2713,0.2744,0.2747,0.2729,0.2754,0.2755,0.275,0.2761,0.2763,0.2755,0.2753,0.2781,0.2785,0.2789,0.2854,0.28,0.2803,0.2804,0.2903,0.2905,0.2906,0,0,0,0,0,0,0.2717,0.272,0.2743,0.2737,0.2742,0.2756,0.2751,0.2752,0.2766,0.2774,0.2774,0.2771,0.278,0.2786,0.2815,0.2854,0.2804,0.2806,0.2902,0.2904,0.2906,0.2968,0,0,0,0,0,0,0.2715,0.2718,0.2723,0.2737,0.2743,0.2765,0.2753,0.2753,0.2779,0.2776,0.2788,0.2789,0.278,0.2812,0.2818,0.2857,0.2808,0.29,0.2903,0.2905,0.2964,0.2972,0.2978,0,0,0,0,0,0.2713,0.2715,0.2723,0.2728,0.2746,0.2767,0.277,0.2774,0.2781,0.2784,0.2795,0.2789,0.2831,0.2815,0.2821,0.2862,0.2899,0.2902,0.2905,0.2961,0.2971,0.2978,0,0,0,0,0,0,0.2698,0.2714,0.2722,0.2728,0.2751,0.2765,0.2779,0.279,0.2802,0.2807,0.2808,0.281,0.2847,0.2848,0.283,0.2897,0.2865,0.287,0.2906,0.2915,0.2921,0.29,0.281,0,0,0,0,0,0.2702,0.2703,0.2728,0.2735,0.2751,0.2773,0.2788,0.2794,0.2809,0.2814,0.283,0.2847,0.2864,0.2883,0.2892,0.2939,0.2957,0.2968,0.2975,0.2981,0.2968,0.304,0.3053,0.2916,0.2916,0.2916,0,0,0.2704,0.271,0.2715,0.2734,0.2753,0.2776,0.2777,0.2804,0.2831,0.2819,0.2863,0.2871,0.2879,0.2918,0.2937,0.2927,0.3035,0.2985,0.299,0.2973,0.3045,0.3058,0.307,0.2918,0.2918,0.2917,0,0,0.2705,0.2714,0.2721,0.2735,0.2769,0.2788,0.2803,0.2836,0.2857,0.29,0.2898,0.2929,0.2965,0.2977,0.2988,0.3045,0.3063,0.3056,0.3087,0.3159,0.317,0.3181,0.3244,0.3259,0.3069,0.3069,0.3069,0,0.2705,0.2716,0.273,0.2738,0.276,0.2798,0.2821,0.2852,0.2892,0.2921,0.2917,0.2984,0.2991,0.3045,0.3051,0.3063,0.3099,0.3056,0.3169,0.3179,0.3189,0.3251,0.3267,0.3072,0.3072,0.3071,0.3071,0,0.2709,0.2725,0.2734,0.2757,0.2781,0.2806,0.2855,0.2889,0.2932,0.2968,0.3034,0.3053,0.3098,0.3107,0.3091,0.3168,0.3172,0.3165,0.3149,0.3207,0.3268,0.3284,0.3077,0.3076,0.3075,0.3074,0,0,0.2689,0.2729,0.2734,0.2748,0.2794,0.281,0.2868,0.2932,0.2976,0.3034,0.3109,0.3135,0.3169,0.3181,0.3194,0.3233,0.3337,0.3225,0.3227,0.3288,0.3499,0.3366,0.3371,0.3358,0.3361,0.3363,0.3522,0,0.2694,0.2713,0.2739,0.2774,0.2794,0.2838,0.2888,0.2946,0.3009,0.3093,0.3154,0.3212,0.3201,0.3226,0.3283,0.332,0.3378,0.3294,0.343,0.3433,0.3309,0.3384,0.3102,0.3207,0.3537,0.354,0.3542,0,0.2688,0.2705,0.2735,0.2784,0.28,0.2829,0.2906,0.2963,0.308,0.3133,0.3225,0.327,0.3366,0.3335,0.3473,0.3426,0.3466,0.3482,0.3489,0.3345,0.3328,0.3197,0.3223,0.3568,0.3566,0.3564,0.3563,0,0.2655,0.2699,0.2725,0.2735,0.2799,0.2829,0.2885,0.2977,0.3044,0.3172,0.3234,0.3355,0.3462,0.3511,0.3564,0.3535,0.3697,0.3678,0.3599,0.3592,0.3363,0.3328,0.3766,0.3766,0.3765,0.3765,0.3764,0,0.2632,0.2653,0.271,0.2717,0.2759,0.2818,0.2893,0.2952,0.3083,0.3165,0.3275,0.3341,0.351,0.3615,0.362,0.3669,0.3773,0.3608,0.3624,0.3376,0.3343,0.365,0.3634,0.3771,0.377,0.3768,0.3767,0,0.2578,0.2622,0.2649,0.2716,0.2741,0.2775,0.2895,0.2951,0.3074,0.3192,0.3235,0.3416,0.3533,0.3656,0.3776,0.3761,0.3776,0.376,0.3451,0.3423,0.3614,0.36,0.3705,0.3702,0.3699,0.3697,0.3695,0,0.2555,0.255,0.2623,0.2653,0.2687,0.2758,0.281,0.2934,0.2998,0.3181,0.3228,0.3408,0.3481,0.3642,0.3628,0.3663,0.3746,0.3413,0.3277,0.3603,0.3609,0.36,0.359,0.3028,0.3021,0.3015,0.301,0,0.2481,0.2504,0.2516,0.2594,0.2646,0.2709,0.2795,0.2826,0.2973,0.305,0.313,0.3193,0.3368,0.3284,0.3373,0.3326,0.3376,0.3288,0.3752,0.3059,0.297,0.2973,0.2986,0.2957,0.2962,0.2966,0.2969,0.2971,0.2422,0.2431,0.247,0.2501,0.2578,0.2637,0.2626,0.2711,0.2762,0.2822,0.2943,0.2958,0.3037,0.3003,0.2906,0.2855,0.3081,0.295,0.2968,0.2992,0.2857,0.2764,0.2689,0.2692,0.2696,0.2698,0.2701,0,0.2375,0.2384,0.2399,0.2442,0.2456,0.2569,0.2591,0.2538,0.2514,0.2613,0.2646,0.2449,0.2422,0.2497,0.2329,0.2318,0.2288,0.2228,0.2172,0.2228,0.2277,0.2103,0.1737,0.1734,0.1731,0.1728,0,0,0.2375,0.2352,0.233,0.2285,0.235,0.2347,0.2337,0.2241,0.2241,0.2167,0.2156,0.2343,0.2438,0.2069,0.2011,0.1848,0.2022,0.1772,0.2552,0.2544,0.2589,0.2706,0.2502,0,0,0,0,0]},{"header":{"parameterUnit":"m.s-1","parameterCategory":2,"la1":30.2991,"la2":30.254,"lo1":-89.0895,"lo2":-89.0444,"dy":0.0017,"dx":0.0017,"nx":28,"ny":28,"refTime":"2025-09-14T21:00:00:Z","depth":"2","parameterNumber":3,"parameterNumberName":"V-component_of_CURRENTS"},"data":[0,0,0,0,0,0,0,0,0,0,0,0,0,0,0,0,0,0,0,0,0,0,0,0,0,0,0,0,0,0,0,0,0,0,0,0,0,0,0,0,0,0,0,0,0,0,0,0,0,0,0,0,0,0,0,0,0,0,0.0169,0.0168,0,0.0132,0.0132,0.0131,0.0112,0.0112,0.0112,0.0112,0.0049,0.0047,0.0046,0,0,0,0,0,0,0,0,0,0,0,0,0,0.0172,0.0173,0.0169,0.0168,0.0168,0.0132,0.0132,0.0131,0.0112,0.0112,0.0112,0.0112,0.0049,0.0048,0.0046,0,0,0,0,0,0,0,0,0,0,0,0,0,0.0158,0.0173,0.0169,0.0153,0.0152,0.0132,0.0132,0.0131,0.0112,0.0112,0.0112,0.0112,0.005,0.0048,0.0045,0.0033,0,0,0.0038,0.0037,0,0,0,0,0,0,0,0,0.0159,0.0158,0.0156,0.0154,0.0152,0.0126,0.011,0.0097,0.0112,0.0128,0.0112,0.0112,0.0072,0.0068,0.0062,0.003,0.0028,0.0038,0.0036,0.0035,0.0035,0,0,0,0,0,0,0,0.016,0.0159,0.0155,0.0156,0.0153,0.0131,0.0129,0.0107,0.0101,0.0127,0.0125,0.012,0.0071,0.0065,0.0061,0.0027,0.0038,0.0036,0.0034,0.0033,-0.0009,-0.0009,0,0,0,0,0,0,0.0166,0.016,0.0156,0.0154,0.0154,0.0131,0.0129,0.0135,0.0102,0.0097,0.012,0.0119,0.0069,0.0064,0.0058,0.0062,0.0035,0.0033,0.0032,-0.0009,-0.0009,-0.0009,0,0,0,0,0,0,0.0166,0.0166,0.0158,0.0155,0.0152,0.0132,0.0138,0.0134,0.0131,0.0097,0.0091,0.012,0.0069,0.0062,0.0046,0.0059,0.0032,0.003,-0.001,-0.0009,-0.0009,0.0057,0,0,0,0,0,0,0.0167,0.0167,0.0172,0.0156,0.0152,0.0158,0.0138,0.0134,0.0127,0.0126,0.0095,0.0089,0.0068,0.005,0.0043,0.0055,0.0028,-0.001,-0.0009,-0.0009,0.0054,0.006,0.0064,0,0,0,0,0,0.0167,0.0181,0.0173,0.0172,0.0161,0.0158,0.0155,0.014,0.0128,0.0134,0.011,0.009,0.0049,0.0048,0.0041,0.0052,-0.001,-0.001,-0.0009,0.0052,0.0059,0.0064,0,0,0,0,0,0,0.0182,0.0179,0.0171,0.0182,0.0174,0.0155,0.0156,0.0143,0.013,0.0126,0.0093,0.0086,0.0076,0.0053,0.0053,0.004,0.0016,0.0015,0.0065,0.0071,0.0076,0.0095,0.0026,0,0,0,0,0,0.0188,0.0199,0.0188,0.0195,0.0194,0.0174,0.0169,0.0161,0.0146,0.014,0.0116,0.0091,0.0072,0.0064,0.0042,0.0035,0.0016,0.0037,0.0042,0.0046,0.0057,0.0041,0.0045,-0.0006,-0.0006,-0.0006,0,0,0.0192,0.0193,0.0197,0.0199,0.019,0.0202,0.0172,0.0172,0.0182,0.0134,0.0135,0.0105,0.0073,0.0068,0.0062,0.0052,0.005,0.0047,0.0051,0.006,0.0042,0.0047,0.0051,-0.0006,-0.0006,-0.0006,0,0,0.0214,0.0211,0.023,0.0232,0.0227,0.022,0.0223,0.0208,0.0203,0.0197,0.0166,0.0147,0.0116,0.0102,0.0089,0.0106,0.0074,0.0095,0.0139,0.0123,0.0128,0.0131,0.0112,0.0113,0.0101,0.0101,0.0101,0,0.022,0.0245,0.0233,0.0253,0.0261,0.0233,0.0258,0.0249,0.0231,0.023,0.0207,0.0167,0.0136,0.0136,0.0141,0.0119,0.0102,0.0122,0.0131,0.0134,0.0137,0.0116,0.0117,0.0104,0.0104,0.0103,0.0103,0,0.0259,0.0279,0.029,0.0312,0.0318,0.0333,0.0324,0.0323,0.0306,0.0296,0.0284,0.0239,0.0219,0.0203,0.0176,0.0182,0.016,0.0138,0.0121,0.0147,0.0122,0.0122,0.0109,0.0107,0.0106,0.0106,0,0,0.0278,0.0313,0.0317,0.0342,0.0353,0.0366,0.038,0.0391,0.0412,0.0373,0.0392,0.0344,0.0315,0.0298,0.0258,0.024,0.0237,0.0202,0.02,0.0191,0.02,0.0158,0.0153,0.0217,0.0217,0.0218,0.0175,0,0.0315,0.0373,0.0377,0.0428,0.0459,0.0447,0.0472,0.0475,0.0467,0.0477,0.0423,0.042,0.0353,0.0347,0.0318,0.0265,0.0239,0.025,0.0169,0.0167,0.0133,0.0152,0.0173,0.0135,0.0174,0.0174,0.0174,0,0.0355,0.0393,0.0453,0.0503,0.0516,0.0539,0.0578,0.06,0.0601,0.0596,0.0573,0.0527,0.0495,0.0432,0.0351,0.0361,0.0286,0.0234,0.023,0.017,0.0124,0.0114,0.0132,0.0173,0.0173,0.0173,0.0173,0,0.0386,0.0445,0.0498,0.0515,0.0566,0.0587,0.0614,0.0634,0.0681,0.0675,0.0706,0.0634,0.0633,0.052,0.0397,0.0377,0.0306,0.0265,0.0151,0.0147,0.0139,0.0133,0.02,0.02,0.02,0.02,0.02,0,0.043,0.0472,0.0518,0.0549,0.0622,0.0638,0.0719,0.0729,0.0781,0.0862,0.0776,0.0808,0.0658,0.0589,0.0441,0.0304,0.0337,0.0166,0.0137,0.016,0.0158,0.0168,0.0165,0.0199,0.0199,0.0199,0.02,0,0.046,0.0487,0.0556,0.0617,0.0639,0.0696,0.08,0.0872,0.0904,0.1005,0.1011,0.0965,0.0871,0.0702,0.054,0.0393,0.0239,0.0175,0.0208,0.0183,0.0076,0.0076,0.0046,0.0044,0.0043,0.0041,0.004,0,0.0483,0.0521,0.0604,0.066,0.069,0.0781,0.0861,0.0924,0.1017,0.1102,0.1161,0.1097,0.106,0.0797,0.0527,0.0268,0.0236,0.011,0.0064,0.0087,0.0062,0.0065,0.0067,0.008,0.0079,0.0079,0.0078,0,0.0534,0.0558,0.0619,0.0733,0.0819,0.0936,0.1049,0.1138,0.124,0.1315,0.1384,0.1349,0.1108,0.0846,0.0497,0.0311,0.0147,0.0089,0.0125,0.0109,0.0113,0.009,0.0093,0.0074,0.0074,0.0074,0.0075,0.0075,0.057,0.0626,0.0711,0.0822,0.093,0.1081,0.1187,0.1315,0.1458,0.1567,0.1527,0.1479,0.1194,0.0732,0.0429,0.011,0.0116,-0.0006,-0.0001,0.0003,0.0008,0.0009,-0.005,-0.005,-0.005,-0.005,-0.005,0,0.0626,0.0694,0.0801,0.0941,0.1072,0.1121,0.1314,0.1417,0.1578,0.1643,0.1669,0.1379,0.1096,0.0769,0.0297,0.0009,-0.0005,-0.0084,-0.003,-0.0024,-0.0018,-0.0013,-0.0077,-0.0078,-0.0079,-0.0079,0,0,0.0661,0.0769,0.083,0.104,0.1141,0.1324,0.1436,0.1561,0.1643,0.1683,0.1644,0.1566,0.1184,0.0839,0.0459,0.0196,0.0149,0.0136,0.0186,0.0301,0.031,0.0052,0.007,0,0,0,0,0]}],[{"header":{"parameterUnit":"m.s-1","parameterCategory":2,"la1":30.2991,"la2":30.254,"lo1":-89.0895,"lo2":-89.0444,"dy":0.0017,"dx":0.0017,"nx":28,"ny":28,"refTime":"2025-09-14T21:00:00:Z","depth":"4","parameterNumber":2,"parameterNumberName":"U-component_of_CURRENTS"},"data":[0,0,0,0,0,0,0,0,0,0,0,0,0,0,0,0,0,0,0,0,0,0,0,0,0,0,0,0,0,0,0,0,0,0,0,0,0,0,0,0,0,0,0,0,0,0,0,0,0,0,0,0,0,0,0,0,0,0,0.1483,0.1484,0,0.1514,0.1514,0.1514,0.1526,0.1526,0.1526,0.1527,0.1601,0.1602,0.1604,0,0,0,0,0,0,0,0,0,0,0,0,0,0.1407,0.1408,0.1483,0.1484,0.1485,0.1514,0.1514,0.1514,0.1526,0.1526,0.1527,0.1527,0.16,0.1602,0.1604,0,0,0,0,0,0,0,0,0,0,0,0,0,0.1434,0.1408,0.1483,0.1498,0.15,0.1514,0.1514,0.1514,0.1526,0.1526,0.1527,0.1527,0.1599,0.1602,0.1604,0.1608,0,0,0.1612,0.1613,0,0,0,0,0,0,0,0,0.1433,0.1436,0.1495,0.1497,0.1499,0.1521,0.1514,0.1549,0.1525,0.1511,0.1527,0.1527,0.1581,0.1585,0.1581,0.1611,0.1614,0.1612,0.1613,0.1614,0.1615,0,0,0,0,0,0,0,0.1431,0.1435,0.149,0.1496,0.1499,0.1494,0.1498,0.152,0.1539,0.1512,0.1514,0.1525,0.1582,0.1579,0.1584,0.1616,0.1612,0.1614,0.1615,0.1616,0.1736,0.1738,0,0,0,0,0,0,0.1438,0.1434,0.1489,0.1492,0.1472,0.1495,0.15,0.1509,0.1538,0.1544,0.1525,0.1526,0.1575,0.1581,0.1586,0.1669,0.1614,0.1616,0.1618,0.1734,0.1736,0.1738,0,0,0,0,0,0,0.1436,0.1443,0.1488,0.1467,0.1473,0.1497,0.1507,0.151,0.1537,0.1548,0.1554,0.1553,0.1575,0.1583,0.1636,0.1669,0.1618,0.162,0.1732,0.1735,0.1737,0.1786,0,0,0,0,0,0,0.1434,0.1442,0.146,0.1468,0.1475,0.1504,0.1507,0.151,0.1543,0.1545,0.1574,0.1579,0.1576,0.1632,0.1638,0.1672,0.1622,0.173,0.1733,0.1736,0.1782,0.179,0.1796,0,0,0,0,0,0.1431,0.1443,0.146,0.1468,0.1496,0.1505,0.1507,0.1522,0.1545,0.155,0.1586,0.158,0.1657,0.1636,0.1642,0.1677,0.1728,0.1732,0.1736,0.1779,0.1788,0.1796,0,0,0,0,0,0,0.1424,0.1447,0.1465,0.1487,0.1503,0.1509,0.153,0.1542,0.1572,0.1595,0.1603,0.161,0.1667,0.1669,0.1646,0.1722,0.1692,0.1697,0.1722,0.1731,0.1738,0.1726,0.1624,0,0,0,0,0,0.1432,0.1448,0.1468,0.1491,0.1507,0.1528,0.1542,0.1554,0.158,0.1594,0.1618,0.1652,0.1683,0.1706,0.1727,0.1772,0.1784,0.1799,0.1806,0.1812,0.1808,0.1875,0.1887,0.1751,0.1751,0.1751,0,0,0.1439,0.1455,0.1467,0.1492,0.1515,0.1535,0.1537,0.1571,0.1594,0.16,0.1656,0.168,0.1701,0.1747,0.1774,0.1758,0.1858,0.1817,0.1822,0.1814,0.188,0.1893,0.1905,0.1753,0.1753,0.1753,0,0,0.1448,0.148,0.1494,0.1512,0.1552,0.1562,0.158,0.1609,0.1634,0.1683,0.1699,0.1746,0.1792,0.1808,0.1823,0.1885,0.1893,0.1901,0.1929,0.1995,0.2007,0.2017,0.2047,0.2059,0.1905,0.1906,0.1906,0,0.1458,0.148,0.1499,0.152,0.1545,0.158,0.1604,0.1629,0.1672,0.17,0.1712,0.1798,0.1816,0.187,0.189,0.1901,0.1931,0.1893,0.2004,0.2015,0.2024,0.2052,0.2066,0.1908,0.1908,0.1908,0.1907,0,0.1469,0.15,0.1517,0.1555,0.1578,0.1609,0.1648,0.1688,0.1733,0.1754,0.183,0.1862,0.1912,0.1927,0.1928,0.2006,0.2003,0.2005,0.198,0.2041,0.2067,0.208,0.1912,0.1911,0.191,0.191,0,0,0.1453,0.1511,0.1522,0.1546,0.1604,0.1618,0.168,0.1727,0.1777,0.1828,0.1886,0.1942,0.1971,0.199,0.201,0.2056,0.2149,0.2065,0.2067,0.2088,0.2284,0.2123,0.2121,0.2185,0.2187,0.2189,0.2273,0,0.1461,0.15,0.153,0.1577,0.1601,0.1658,0.1703,0.1755,0.1817,0.1882,0.1931,0.1995,0.1994,0.2038,0.2088,0.2143,0.2187,0.2125,0.2226,0.2228,0.2073,0.2132,0.2198,0.2282,0.2285,0.2287,0.2289,0,0.1457,0.1484,0.1527,0.1589,0.1608,0.1646,0.1736,0.1783,0.1877,0.1933,0.201,0.205,0.2134,0.2125,0.2249,0.2219,0.2254,0.2281,0.2285,0.2122,0.209,0.221,0.2312,0.231,0.2309,0.2307,0.2306,0,0.1412,0.148,0.1515,0.1537,0.161,0.1656,0.1709,0.1802,0.1854,0.1979,0.2036,0.2134,0.2202,0.2275,0.2335,0.2317,0.2454,0.2437,0.2314,0.2303,0.2402,0.239,0.2514,0.2514,0.2513,0.2513,0.2513,0,0.1386,0.1418,0.1505,0.1518,0.1573,0.164,0.172,0.1792,0.19,0.1963,0.2066,0.2129,0.225,0.2331,0.2372,0.2381,0.2496,0.2319,0.2318,0.2419,0.2408,0.241,0.2397,0.2516,0.2516,0.2515,0.2514,0,0.1318,0.1381,0.1417,0.1507,0.1548,0.1587,0.1715,0.1761,0.189,0.1983,0.2026,0.2158,0.2269,0.2355,0.2474,0.241,0.2446,0.2416,0.2511,0.2515,0.2238,0.2227,0.2282,0.2277,0.2273,0.227,0.2267,0,0.1279,0.1289,0.1389,0.1413,0.146,0.1546,0.1598,0.1742,0.1798,0.1982,0.2005,0.2149,0.2228,0.2266,0.2367,0.2423,0.2393,0.2373,0.2293,0.2223,0.2218,0.2213,0.2208,0.226,0.2259,0.2258,0.2257,0,0.1182,0.1231,0.1257,0.1316,0.1377,0.144,0.1538,0.1575,0.1739,0.1872,0.1949,0.2,0.2106,0.218,0.2233,0.2268,0.2367,0.2329,0.2337,0.2262,0.2197,0.2195,0.2195,0.2242,0.2244,0.2246,0.2247,0,0.1109,0.11,0.1147,0.1199,0.1266,0.1307,0.1383,0.1463,0.1548,0.176,0.1786,0.1951,0.2093,0.21,0.216,0.2173,0.2133,0.2042,0.2064,0.2081,0.1973,0.1859,0.1803,0,0,0,0,0,0.1033,0.1014,0.1026,0.1072,0.1136,0.1199,0.1319,0.1402,0.1584,0.1593,0.1688,0.1784,0.186,0.1938,0.1914,0.2058,0.2133,0.2015,0.2036,0.2162,0.2179,0.2069,0,0,0,0,0,0,0.0969,0.0975,0.0981,0.0969,0.0989,0.1058,0.1142,0.1264,0.1287,0.1473,0.1534,0.166,0.1772,0.187,0.1879,0.1901,0.1871,0.212,0.2114,0.2153,0.2168,0.2181,0.2074,0,0,0,0,0]},{"header":{"parameterUnit":"m.s-1","parameterCategory":2,"la1":30.2991,"la2":30.254,"lo1":-89.0895,"lo2":-89.0444,"dy":0.0017,"dx":0.0017,"nx":28,"ny":28,"refTime":"2025-09-14T21:00:00:Z","depth":"4","parameterNumber":3,"parameterNumberName":"V-component_of_CURRENTS"},"data":[0,0,0,0,0,0,0,0,0,0,0,0,0,0,0,0,0,0,0,0,0,0,0,0,0,0,0,0,0,0,0,0,0,0,0,0,0,0,0,0,0,0,0,0,0,0,0,0,0,0,0,0,0,0,0,0,0,0,0.0167,0.0167,0,0.0152,0.0152,0.0152,0.0149,0.0149,0.0149,0.0149,0.0113,0.0112,0.0112,0,0,0,0,0,0,0,0,0,0,0,0,0,0.0165,0.0166,0.0167,0.0167,0.0166,0.0152,0.0152,0.0152,0.0149,0.0149,0.0149,0.0149,0.0114,0.0113,0.0111,0,0,0,0,0,0,0,0,0,0,0,0,0,0.0161,0.0166,0.0167,0.0162,0.0162,0.0152,0.0152,0.0152,0.0149,0.0149,0.0149,0.0149,0.0114,0.0113,0.0111,0.0102,0,0,0.0107,0.0106,0,0,0,0,0,0,0,0,0.0161,0.0161,0.0163,0.0163,0.0162,0.0152,0.0138,0.0134,0.0149,0.0155,0.0149,0.0149,0.0124,0.0121,0.012,0.01,0.0099,0.0107,0.0106,0.0105,0.0105,0,0,0,0,0,0,0,0.0162,0.0162,0.0162,0.0163,0.0162,0.0152,0.0152,0.0138,0.014,0.0155,0.0154,0.0151,0.0123,0.0122,0.0119,0.0098,0.0107,0.0105,0.0105,0.0104,0.0076,0.0076,0,0,0,0,0,0,0.0163,0.0162,0.0163,0.0162,0.016,0.0152,0.0152,0.0156,0.014,0.0138,0.0151,0.0151,0.0124,0.0121,0.0118,0.0122,0.0105,0.0104,0.0103,0.0076,0.0076,0.0077,0,0,0,0,0,0,0.0163,0.0163,0.0163,0.016,0.0159,0.0152,0.0157,0.0156,0.0159,0.0138,0.0135,0.0156,0.0124,0.012,0.0112,0.012,0.0103,0.0102,0.0076,0.0076,0.0076,0.0119,0,0,0,0,0,0,0.0163,0.0164,0.0169,0.0161,0.016,0.0166,0.0156,0.0155,0.0157,0.0157,0.0141,0.0138,0.0124,0.0114,0.011,0.0118,0.0101,0.0076,0.0076,0.0076,0.0118,0.0121,0.0124,0,0,0,0,0,0.0163,0.0174,0.017,0.017,0.0167,0.0166,0.0165,0.016,0.0157,0.0163,0.0151,0.0138,0.0113,0.0113,0.0108,0.0116,0.0076,0.0076,0.0076,0.0116,0.012,0.0124,0,0,0,0,0,0,0.0174,0.0174,0.017,0.0179,0.0175,0.0165,0.0169,0.0164,0.016,0.0161,0.014,0.0136,0.0131,0.0116,0.0116,0.0108,0.0092,0.0092,0.0124,0.0128,0.0131,0.0138,0.0099,0,0,0,0,0,0.0179,0.0189,0.0182,0.0189,0.0189,0.0179,0.0179,0.0177,0.0169,0.0168,0.0155,0.014,0.0127,0.0123,0.0108,0.0104,0.0077,0.0105,0.0108,0.0111,0.0113,0.0079,0.0079,0.0078,0.0078,0.0078,0,0,0.0182,0.0185,0.0189,0.0192,0.0188,0.0196,0.018,0.0185,0.0192,0.0163,0.0169,0.015,0.0128,0.0124,0.0121,0.0114,0.0096,0.0111,0.0114,0.0115,0.008,0.008,0.008,0.0078,0.0078,0.0078,0,0,0.0197,0.0199,0.0212,0.0215,0.0215,0.0212,0.0215,0.0209,0.0209,0.0208,0.0189,0.0174,0.0159,0.0144,0.0134,0.0144,0.0112,0.0141,0.0164,0.0132,0.0132,0.0131,0.0092,0.0088,0.0144,0.0144,0.0144,0,0.0201,0.022,0.0214,0.0229,0.0236,0.0222,0.0238,0.0235,0.0227,0.0227,0.0216,0.0186,0.0167,0.0158,0.0163,0.0151,0.0125,0.0155,0.0136,0.0135,0.0134,0.0094,0.0088,0.0147,0.0146,0.0146,0.0146,0,0.0226,0.0243,0.0251,0.0268,0.0273,0.0286,0.0281,0.0285,0.0279,0.027,0.0259,0.0227,0.021,0.02,0.0186,0.0172,0.0153,0.0143,0.0128,0.0137,0.0094,0.0087,0.015,0.0149,0.0148,0.0148,0,0,0.0234,0.0264,0.0268,0.0289,0.0299,0.0309,0.0321,0.0327,0.0341,0.0315,0.0317,0.0286,0.0264,0.0251,0.0224,0.0195,0.0162,0.0171,0.0168,0.0135,0.0083,0.0072,0.0063,0.015,0.0149,0.0148,0.0055,0,0.0256,0.03,0.0305,0.0345,0.0368,0.0365,0.0383,0.0386,0.0378,0.0375,0.0329,0.0322,0.0286,0.0281,0.0243,0.0186,0.0148,0.0188,0.0078,0.0074,0.0065,0.0057,0.0146,0.005,0.0049,0.0048,0.0047,0,0.0279,0.0311,0.0356,0.04,0.041,0.0429,0.0459,0.0476,0.0463,0.0455,0.0425,0.0387,0.034,0.0308,0.0202,0.023,0.0162,0.0108,0.0103,0.0074,0.0051,0.004,0.0035,0.0036,0.0037,0.0038,0.0039,0,0.0296,0.0344,0.0387,0.0402,0.0446,0.0467,0.0492,0.05,0.0528,0.0506,0.051,0.0438,0.0409,0.0313,0.0202,0.0204,0.0076,0.0065,-0.0018,-0.002,0.0,0.0001,-0.0017,-0.0017,-0.0016,-0.0016,-0.0016,0,0.0322,0.0357,0.0403,0.0429,0.0492,0.0507,0.0567,0.0575,0.0594,0.0625,0.0558,0.0547,0.041,0.032,0.0212,0.0078,0.0081,-0.0019,-0.0044,0.0019,0.0024,-0.0005,-0.0002,-0.002,-0.0019,-0.0018,-0.0018,0,0.0337,0.0364,0.0423,0.048,0.0503,0.0553,0.0631,0.0676,0.0681,0.0714,0.071,0.0626,0.0508,0.0361,0.0197,0.01,-0.0031,-0.0081,-0.0008,-0.0027,-0.0111,-0.0105,-0.0182,-0.0184,-0.0185,-0.0185,-0.0186,0,0.0351,0.0382,0.0462,0.0511,0.0542,0.062,0.068,0.0719,0.0765,0.0762,0.0775,0.0669,0.0592,0.0353,0.0191,-0.0029,-0.006,-0.0136,-0.0123,-0.011,-0.0128,-0.012,-0.0113,-0.0188,-0.0188,-0.0188,-0.0188,0,0.0382,0.0409,0.046,0.0556,0.0629,0.0719,0.0797,0.0833,0.0874,0.0873,0.0829,0.0697,0.0554,0.0357,0.0181,0.0025,-0.009,-0.0147,-0.0146,-0.0135,-0.0118,-0.0132,-0.0124,-0.0192,-0.0191,-0.0191,-0.0191,0,0.0403,0.0445,0.0512,0.0601,0.0695,0.0785,0.0829,0.0877,0.0918,0.0904,0.0883,0.0726,0.063,0.0384,0.0226,0.0066,0.0024,-0.003,-0.0036,-0.0034,0.0035,0.0079,0.0042,0,0,0,0,0,0.0422,0.0471,0.0554,0.0648,0.0742,0.0799,0.0893,0.093,0.0954,0.0936,0.0914,0.0782,0.0533,0.0422,0.0262,0.0197,-0.0011,0.0001,-0.0076,-0.0211,-0.0207,-0.0153,0,0,0,0,0,0,0.0434,0.0506,0.0551,0.0672,0.0739,0.0847,0.0911,0.0935,0.0926,0.0918,0.0794,0.0727,0.0492,0.0622,0.0252,0.0202,0.0128,-0.0114,-0.0118,-0.0213,-0.021,-0.0207,-0.0149,0,0,0,0,0]}]]